TimeCDT,TemperatureF,Dew PointF,Humidity,Sea Level PressureIn,VisibilityMPH,Wind Direction,Wind SpeedMPH,Gust SpeedMPH,PrecipitationIn,Events,Conditions,WindDirDegrees,DateUTC
12:52 AM,39.0,28.0,65,29.86,10.0,NNW,10.4,-,N/A,,Clear,330,2014-03-21 05:52:00
1:52 AM,35.1,27.0,72,29.88,10.0,NW,9.2,-,N/A,,Clear,310,2014-03-21 06:52:00
2:52 AM,32.0,26.1,79,29.90,10.0,West,6.9,-,N/A,,Clear,280,2014-03-21 07:52:00
3:52 AM,30.0,24.1,79,29.90,10.0,West,6.9,-,N/A,,Clear,280,2014-03-21 08:52:00
4:52 AM,30.9,24.1,76,29.90,10.0,West,8.1,-,N/A,,Mostly Cloudy,280,2014-03-21 09:52:00
5:52 AM,36.0,23.0,59,29.91,10.0,NNW,18.4,26.5,N/A,,Overcast,330,2014-03-21 10:52:00
6:52 AM,36.0,23.0,59,29.92,10.0,NNW,19.6,27.6,N/A,,Partly Cloudy,330,2014-03-21 11:52:00
7:52 AM,34.0,23.0,64,29.98,10.0,NW,13.8,24.2,N/A,,Clear,310,2014-03-21 12:52:00
8:52 AM,37.9,24.1,57,30.00,10.0,NW,25.3,38.0,N/A,,Clear,320,2014-03-21 13:52:00
9:52 AM,41.0,24.1,51,30.02,10.0,NW,19.6,31.1,N/A,,Scattered Clouds,320,2014-03-21 14:52:00
10:52 AM,41.0,25.0,53,30.04,10.0,NW,25.3,35.7,N/A,,Overcast,320,2014-03-21 15:52:00
11:43 AM,39.2,28.4,65,30.03,10.0,NW,28.8,36.8,N/A,,Overcast,320,2014-03-21 16:43:00
11:52 AM,39.0,28.0,65,30.07,10.0,NW,24.2,35.7,N/A,,Overcast,320,2014-03-21 16:52:00
12:52 PM,37.0,27.0,67,30.12,10.0,NNW,21.9,32.2,N/A,,Overcast,340,2014-03-21 17:52:00
1:52 PM,35.1,27.0,72,30.17,10.0,North,20.7,29.9,N/A,,Overcast,350,2014-03-21 18:52:00
2:28 PM,33.8,26.6,75,30.12,10.0,North,19.6,27.6,N/A,,Overcast,350,2014-03-21 19:28:00
2:52 PM,34.0,26.1,73,30.20,10.0,NNW,18.4,25.3,N/A,,Overcast,340,2014-03-21 19:52:00
3:52 PM,35.1,25.0,67,30.22,10.0,North,15.0,-,N/A,,Overcast,350,2014-03-21 20:52:00
4:52 PM,34.0,24.1,67,30.25,10.0,North,16.1,-,N/A,,Overcast,350,2014-03-21 21:52:00
5:52 PM,33.1,24.1,70,30.27,10.0,North,13.8,19.6,N/A,,Overcast,350,2014-03-21 22:52:00
6:52 PM,33.1,23.0,66,30.29,10.0,North,13.8,-,N/A,,Overcast,360,2014-03-21 23:52:00
7:52 PM,30.9,19.9,64,30.32,10.0,North,13.8,21.9,N/A,,Overcast,360,2014-03-22 00:52:00
8:52 PM,28.9,19.9,69,30.34,10.0,North,11.5,-,N/A,,Overcast,360,2014-03-22 01:52:00
9:18 PM,28.4,19.4,69,30.28,10.0,North,16.1,20.7,N/A,,Overcast,350,2014-03-22 02:18:00
9:52 PM,28.0,19.9,72,30.37,10.0,North,10.4,-,N/A,,Overcast,350,2014-03-22 02:52:00
10:52 PM,28.0,19.0,69,30.37,10.0,NNW,13.8,-,N/A,,Overcast,340,2014-03-22 03:52:00
11:52 PM,27.0,19.0,72,30.37,10.0,North,13.8,-,N/A,,Overcast,360,2014-03-22 04:52:00